map of XCR home
Great Circle Mapper logo
XCR - Airport
Location
City:  Chalons-sur-Marne, France
Name:Vatry International Airport
ICAO / IATA:LFOK / XCR

Details
Type:Airport (Aerodrome, Airfield)
Use:Public/Civil, International (customs port of entry)
Latitude:4846'24"N (48.773333)
Longitude:412'22"E (4.206111)
Elevation:587 ft (179 m)
Runways:1
Longest:12664 × 148 ft (3860 × 45 m), paved

Time
Time Zone:UTC+1 (DST+2)
Local Time:

Weather
METAR:LFOK 301930Z AUTO 15003KT 9999 NSC 16/13 Q1026
TAF:LFOK 301700Z 3018/0118 VRB02KT 9999 SCT035
BECMG 0100/0103 3000 BR PROB40 0103/0108 0200 FG VV///
BECMG 0108/0110 9999 NSW

Related Locations
Nearby:
Farthest:CHT: 12086 mi / 19450 km
Waitangi [Tuuta], Chatham Islands, NZ

Find:

   beyond  
but within

Other Information
Maps:
NOTAMs:
Links:
Sources:

  
flag of France   

Sectional Chart

Flight Planning
at skyvector.com

Satellite Image

Google Maps Satellite View

 

Copyright © 2004-2014 Karl L. Swartz. All rights reserved.
The Great Circle Mapper name and logo are trademarks of the Great Circle Mapper.
All other trademarks mentioned herein belong to their respective owners.
Please see credits for attibutions and further copyright information.

  Follow gcmap on Facebook Follow gcmap on Twitter

hCard Microformat

Geo Microformat